Location: Waco, TX
(31.5480°N, 97.1670°W)
Time: 00:38:36
(UTC-06:00)

ISS - Pass Details

Date: 15 December 2017
Orbit: 403 x 407 km, 51.6° (Epoch: 12 December)

Event Time Altitude Azimuth Distance (km) Brightness Sun altitude
Rises 12:10:19 0° 264° (W) 2,317 0.0 35.1°
Reaches altitude 10° 12:13:06 10° 290° (WNW) 1,460 -1.1 35.1°
Maximum altitude 12:15:00 15° 326° (NW) 1,220 -1.7 35.1°
Drops below altitude 10° 12:16:55 10° 2° (N) 1,464 -1.4 35.1°
Sets 12:19:43 0° 28° (NNE) 2,326 -0.4 35.1°
